Regional Weather Roundup
Issued by NWS

Home | Current Version | Previous Version | Text Only | Print | Product List | Glossary Off
Versions: 1 2 3 4 5 6 7 8 9 10 11 12 13 14 15 16 17 18 19 20 21 22 23 24 25 26 27 28 29 30 31 32 33 34 35 36 37 38 39 40 41 42 43 44 45 46 47 48 49 50

377
ASUS43 KLOT 270303
RWRIL

ILLINOIS REGIONAL WEATHER ROUNDUP
NATIONAL WEATHER SERVICE CHICAGO/ROMEOVILLE IL
1000 PM CDT SUN MAR 26 2017

NOTE: "FAIR" INDICATES FEW OR NO CLOUDS BELOW 12,000 FEET WITH NO
SIGNIFICANT WEATHER AND/OR OBSTRUCTIONS TO VISIBILITY.

* THESE STATIONS ARE NOT UNDER NWS QUALITY CONTROL. THEY ALSO MAY NOT
  REPORT WEATHER SUCH AS PRECIPITATION OR FOG.

ILZ001-002-007-009-015-016-024-270400-
NORTHWEST ILLINOIS

CITY           SKY/WX    TMP DP  RH WIND       PRES   REMARKS
MOLINE         CLOUDY    50  46  86 W9        29.92S
STERLING*      CLOUDY    50  49  96 W13       29.91R FOG
SAVANNA*       CLOUDY    49  47  94 NW8       29.91S
$$

ILZ003-004-008-010-011-017-018-270400-
NORTH CENTRAL ILLINOIS

CITY           SKY/WX    TMP DP  RH WIND       PRES   REMARKS
ROCKFORD       CLOUDY    52  50  93 N7        29.90R FOG
FREEPORT*      CLOUDY    48  47  99 W6        29.92R FOG
ROCHELLE*      CLOUDY    51  51  99 W12       29.90R FOG
DE KALB*       CLOUDY    50  49  97 SW10      29.89R
$$

ILZ005-006-012>014-019>023-270400-
NORTHEAST ILLINOIS

CITY           SKY/WX    TMP DP  RH WIND       PRES   REMARKS
CHICAGO-OHARE  CLOUDY    54  50  86 SW7       29.87S
CHICAGO-MIDWAY CLOUDY    53  51  93 SW9       29.89R
AURORA         CLOUDY    51  49  92 SW8       29.90R FOG
LANSING*       CLOUDY    53  51  95 W10       29.90R
WAUKEGAN       FOG       43  43 100 CALM      29.86S VSB 1
DUPAGE AIRPORT CLOUDY    51  51 100 SW10      29.88R
WHEELING       CLOUDY    53  53 100 SW6       29.89R
MORRIS*        CLOUDY    50  49  95 CALM      29.91R FOG
$$

LMZ740>746-270400-
SOUTHERN LAKE MICHIGAN

STATION/POSITION SKY/WX   TEMP    WIND        PRES    VSBY  WAVE
                          AIR SEA DIR/SP/G                  HT/PER
                          (F)     (DEG/KT/KT) (MB)    (MI)  (FT/S)
HARRISON CRIB              53     240/ 11/ 14   N/A
BURNHAM HARBOR             53     230/  7/ 13   N/A
CALUMET HARBOR             54     220/  6/ 10 1011.4R
BURNS HARBOR               54     230/  8/ 12 1012.5S
MICHIGAN CITY              46     220/  8/  9   N/A
$$

ILZ025>027-034>036-040-047-049-050-058-095>099-270400-
WEST-CENTRAL ILLINOIS

CITY           SKY/WX    TMP DP  RH WIND       PRES   REMARKS
QUINCY         CLOUDY    49  45  86 N6        29.94F
GALESBURG*     CLOUDY    48  46  94 W7        29.93F
MACOMB*        CLOUDY    49  47  96 SW8       29.97S FOG
PITTSFIELD*    CLOUDY    49  46  90 N5        29.96S
$$

ILZ028>032-037-038-041>044-048-051>054-059>061-270400-
CENTRAL ILLINOIS

CITY           SKY/WX    TMP DP  RH WIND       PRES   REMARKS
PONTIAC        CLOUDY    51  50  97 W13       29.94S
BLOOMINGTON    CLOUDY    49  48  97 W13       29.95R
DECATUR        CLOUDY    54  48  80 W8        29.96R
PEORIA         CLOUDY    50  47  89 W7        29.94S
SPRINGFIELD    CLOUDY    53  47  79 W6        29.96S
TAYLORVILLE    NOT AVBL
$$

ILZ033-039-045-046-055>057-062-063-270400-
EAST-CENTRAL ILLINOIS

CITY           SKY/WX    TMP DP  RH WIND       PRES   REMARKS
CHAMPAIGN      CLOUDY    54  49  83 W8        29.95S
RANTOUL*       CLOUDY    53  51  95 W9        29.95R
MATTOON        CLEAR     52  49  89 SW3       29.96R
$$

ILZ079-100>102-270400-
SOUTHWEST ILLINOIS

CITY           SKY/WX    TMP DP  RH WIND       PRES   REMARKS
ALTON          CLEAR     48  46  93 CALM      29.96S
CAHOKIA*       PTCLDY    53  50  89 CALM      29.93F
SPARTA*        CLOUDY    55  48  76 SE6       29.96F
$$

ILZ064>066-069>071-074>076-080>082-084>086-088>090-092>094-270400-
SOUTH-CENTRAL ILLINOIS

CITY           SKY/WX    TMP DP  RH WIND       PRES   REMARKS
CARBONDALE     MOCLDY    54  48  80 SE5       29.97S
CAIRO*         CLEAR     53  51  96 CALM      29.97F
EFFINGHAM*     CLOUDY    50  49  95 CALM      29.98S
MARION         CLOUDY    54  48  82 CALM      29.98F
MT. VERNON     PTCLDY    47  46  97 CALM      29.97S
CENTRALIA*     CLOUDY    50  49  98 SE3       29.96S
SALEM*         CLOUDY    51  48  90 CALM      29.96F
$$

ILZ067-068-072-073-078-083-087-091-270400-
SOUTHEAST ILLINOIS

CITY           SKY/WX    TMP DP  RH WIND       PRES   REMARKS
LAWRENCEVILLE  CLOUDY    50  48  93 S6        29.99R
FLORA*         PTCLDY    51  49  93 CALM      29.98R
FAIRFIELD*     CLOUDY    50  48  93 CALM      29.97S
HARRISBURG*    CLOUDY    50  48  93 CALM      29.99S
ROBINSON*      PTCLDY    49  47  93 CALM      29.98S
CARMI*         CLOUDY    49  47  92 CALM      29.99R
$$

ABBREVIATIONS USED IN REMARKS
   TC - TEMPERATURE IN CELSIUS
  WCI - WIND CHILL INDEX
   HX - HEAT INDEX
  VSB - VISIBILITY
$$





USA.gov is the U.S. government's official web portal to all federal, state and local government web resources and services.